Regional Weather Roundup
Issued by NWS

Home | Current Version | Previous Version | Graphics & Text | Print | Product List | Glossary Off
Versions: 1 2 3 4 5 6 7 8 9 10 11 12 13 14 15 16 17 18 19 20 21 22 23 24 25 26 27 28 29 30 31 32 33 34 35 36 37 38 39 40 41 42 43 44 45 46 47 48 49 50

000
ASUS43 KLSX 281207
RWRMO

WEATHER SUMMARY FOR MISSOURI
NATIONAL WEATHER SERVICE SPRINGFIELD MO
600 AM CST FRI NOV 28 2014

NOTE: "FAIR" INDICATES FEW OR NO CLOUDS BELOW 12,000 FEET WITH NO
       SIGNIFICANT WEATHER AND/OR OBSTRUCTIONS TO VISIBILITY.
       CURRENT SKY AND/OR WEATHER CONDITIONS ARE NOT AVAILABLE FOR
       CHILLICOTHE AND FARMINGTON.

MOZ001>031-035>038-043-044-053-054-281300-
...NORTHERN AND WESTERN MISSOURI...

CITY           SKY/WX    TMP DP  RH WIND       PRES   REMARKS
KANSAS CTY INT PTCLDY    36  24  62 S16       30.02F WCI  26
6HR MIN TEMP:  30; 6HR MAX TEMP:  36;

KANSAS C DTWN  CLEAR     36  23  59 S8        30.04F WCI  30
6HR MIN TEMP:  32; 6HR MAX TEMP:  37;

LEE`S SUMMIT   CLEAR     34  24  67 S12G21    30.05F WCI  25
6HR MIN TEMP:  30; 6HR MAX TEMP:  34;

ST JOSEPH      CLEAR     30  23  75 S10       30.01F WCI  21
6HR MIN TEMP:  28; 6HR MAX TEMP:  31;

CHILLICOTHE      N/A     31  23  72 SE9       30.07F WCI  23
6HR MIN TEMP:  28; 6HR MAX TEMP:  31;

KIRKSVILLE     CLEAR     24  22  91 SE14      30.10F WCI  12
6HR MIN TEMP:  19; 6HR MAX TEMP:  24;


$$
MOZ066>068-077>081-088>096-101>105-281300-
...SOUTHWEST MISSOURI...

CITY           SKY/WX    TMP DP  RH WIND       PRES   REMARKS
SPRINGFIELD    CLEAR     33  25  72 S14       30.17F WCI  23
6HR MIN TEMP:  32; 6HR MAX TEMP:  34;

JOPLIN         CLEAR     41  25  53 S21G28    30.14F
6HR MIN TEMP:  33; 6HR MAX TEMP:  42;


$$
MOZ032>034-039>042-045>050-055>058-069>072-281300-
...CENTRAL MISSOURI...

CITY           SKY/WX    TMP DP  RH WIND       PRES   REMARKS
COLUMBIA       CLEAR     29  23  78 SE14      30.15F WCI  18
6HR MIN TEMP:  27; 6HR MAX TEMP:  30;

JEFFERSON CITY CLEAR     30  23  75 E7        30.20F WCI  23
6HR MIN TEMP:  28; 6HR MAX TEMP:  30;

ROLLA          CLEAR     31  23  72 S12       30.18F WCI  22
6HR MIN TEMP:  27; 6HR MAX TEMP:  31;

SEDALIA        CLEAR     33  25  72 S15       30.11F WCI  23
6HR MIN TEMP:  29; 6HR MAX TEMP:  33;

WHITEMAN AFB   CLEAR     32  25  75 S13       30.08F WCI  22
WARRENSBURG    CLEAR     34  27  75 S12       30.07F WCI  25
OSAGE BEACH    CLEAR     32  23  69 S8        30.18F WCI  25

$$
MOZ051-052-059>065-281300-
...EAST CENTRAL MISSOURI...

CITY           SKY/WX    TMP DP  RH WIND       PRES   REMARKS
ST LOUIS INTL  PTCLDY    27  21  78 SE13      30.28F WCI  16
6HR MIN TEMP:  26; 6HR MAX TEMP:  27;

SPIRIT OF STL  CLEAR     26  22  84 SE3       30.26F
6HR MIN TEMP:  26; 6HR MAX TEMP:  28;

ST CHARLES     CLEAR     24  21  88 E8        30.28F WCI  15
6HR MIN TEMP:  22; 6HR MAX TEMP:  25;


$$
MOZ072>076-082>087-097>100-106>115-281300-
...SOUTH CENTRAL AND SOUTHEAST MISSOURI...

CITY           SKY/WX    TMP DP  RH WIND       PRES   REMARKS
CAPE GIRARDEAU CLEAR     29  26  89 SE10      30.37F WCI  20
6HR MIN TEMP:  27; 6HR MAX TEMP:  31;

FARMINGTON     CLEAR     27  27 100 SE7       30.30S WCI  19
6HR MIN TEMP:  27; 6HR MAX TEMP:  28;

POPLAR BLUFF   CLEAR     26  23  88 SE6       30.35F WCI  19
6HR MIN TEMP:  24; 6HR MAX TEMP:  29;

WEST PLAINS    CLEAR     28  23  81 SE3       30.27F
6HR MIN TEMP:  28; 6HR MAX TEMP:  31;


$$



USA.gov is the U.S. government's official web portal to all federal, state and local government web resources and services.